Regional Weather Roundup
Issued by NWS

Home | Current Version | Previous Version | Graphics & Text | Print | Product List | Glossary On
Versions: 1 2 3 4 5 6 7 8 9 10 11 12 13 14 15 16 17 18 19 20 21 22 23 24 25 26 27 28 29 30 31 32 33 34 35 36 37 38 39 40 41 42 43 44 45 46 47 48 49 50
000
ASUS45 KABQ 210301
RWRNM
NEW MEXICO REGIONAL WEATHER ROUNDUP
NATIONAL WEATHER SERVICE ALBUQUERQUE NM
900 PM MDT FRI APR 20 2018

NOTE: "FAIR" MEANS FEW OR NO CLOUDS BELOW 12,000 FEET AGL WITH NO
       SIGNIFICANT WEATHER OR OBSTRUCTIONS TO VISION.

      THIS PRODUCT IS RELEASED AS TWO VERSIONS.  ONE VERSION NEAR
      THE TOP OF THE HOUR CONTAINING PRELIMINARY DATA FROM ALBUQUERQUE
      AND OTHER STATIONS.  A FINAL VERSION WITH ADDITIONAL DATA IS
      ISSUED ABOUT 10 MINUTES AFTER THE HOUR.

NMZ501-503-504-510>518-210400-
NORTHWEST PLATEAU/NORTHCENTRAL MOUNTAINS

CITY           SKY/WX    TMP DP  RH WIND       PRES   REMARKS
FARMINGTON     FAIR      46  26  45 W16G23    30.02R
LOS ALAMOS     FAIR      43  17  34 W7G17     30.03R
SANTA FE       FAIR      44  18  35 W9        30.01R
TAOS           CLOUDY    42  18  37 W12       30.04R
ANGEL FIRE     MOCLDY    35  15  43 W7        30.05R WCI  29

$$
NMZ402-403-502-505>509-210400-
WESTCENTRAL MOUNTAINS/SOUTHWEST MOUNTAINS

CITY           SKY/WX    TMP DP  RH WIND       PRES   REMARKS
GALLUP         CLOUDY    37  34  89 SW6       30.10R WCI  32
GRANTS         CLOUDY    37  32  81 NW20G26   30.10R WCI  27
SILVER CITY    FAIR      52  16  24 W13       30.05R

$$
NMZ407-409-411-412-210400-
SOUTHERN DESERTS

CITY           SKY/WX    TMP DP  RH WIND       PRES   REMARKS
DEMING         FAIR      61  16  17 W16G23    30.00R
LAS CRUCES     FAIR      62  10  13 W18G26    29.99R
HOLLOMAN AFB   FAIR      62  11  13 W13       29.96R
ALAMOGORDO     FAIR      59   7  12 W6        29.96R
T OR C         FAIR      61  14  16 W12       29.97R

$$
NMZ519>523-210400-
CENTRAL VALLEYS/CENTRAL HIGHLANDS

CITY           SKY/WX    TMP DP  RH WIND       PRES   REMARKS
ALBUQUERQUE    MOCLDY    53  22  29 NW14G24   30.00R
MORIARTY ARPT  CLOUDY    50  19  28 NW3       30.04R
CLINES CORNERS FAIR      42  12  29 NW15      30.03R
BELEN          FAIR      52  23  31 NW18      30.01R
SOCORRO        FAIR      58  15  19 NW8       29.98R

$$
NMZ524>526-539-540-210400-
SOUTHCENTRAL MOUNTAINS

CITY           SKY/WX    TMP DP  RH WIND       PRES   REMARKS
RUIDOSO        NOT AVBL

$$
NMZ527>531-210400-
NORTHEAST HIGHLANDS/NORTHEAST PLAINS

CITY           SKY/WX    TMP DP  RH WIND       PRES   REMARKS
LAS VEGAS      FAIR      40  15  36 W7        30.00R
RATON          FAIR      34  32  92 NE10      30.01R WCI  26
CLAYTON        CLOUDY    38  38 100 N14       30.00R WCI  30

$$
NMZ532>537-210400-
EASTCENTRAL PLAINS

CITY           SKY/WX    TMP DP  RH WIND       PRES   REMARKS
SANTA ROSA     FAIR      54   7  15 NW7       29.94R
TUCUMCARI      CLOUDY    48  44  86 NE14      29.94R
CANNON AFB     FAIR      54  54 100 N12       29.91R
CLOVIS AIRPORT FAIR      54  50  86 CALM      29.90R

$$
NMZ028-029-538-210400-
SOUTHEAST PLAINS

CITY           SKY/WX    TMP DP  RH WIND       PRES   REMARKS
ROSWELL        FAIR      63  -2   7 W10       29.87R
ARTESIA        FAIR      63   0   8 W8        29.88R
CARLSBAD       FAIR      70   3   7 W20       29.87R
HOBBS          FAIR      63  52  67 S18       29.90R


$$



USA.gov is the U.S. government's official web portal to all federal, state and local government web resources and services.